Zurück zum Katalog

COSMOS 1818 COOLANT

LostLEO
NORAD 36954·DEBRIS·🇷🇺 Russia

Gestartet Feb 1, 1987 von Baikonur Cosmodrome

Loading…

Nächste Überflüge (nächste 24 Stunden)

TLE

VeraltetSource: Space-Track

Epoche: May 14, 2014, 02:17 UTC

1 36954U 87011AJ  14134.09549947  .00000574  00000-0  24926-3 0  9996
2 36954  65.0159  18.9367 0017759 262.0349 171.1117 14.32188639218650

Verfolge COSMOS 1818 COOLANT in Echtzeit mit AllMySat

Download on the App Store